FREGAT DEB, 45840

Orbit data source: Space-Track

FREGAT DEB, 45840 is space debris originally from a launch on Mon, 18 Jul 2011 UTC launched from the Tyuratam Missile And Space Complex (TTMTR). Debris objects in space refer to the collection of defunct objects orbiting the Earth. Examples of debris include non-operational satellites, rocket bodies, and fragments generated from explosions, collisions, or faulty payload assembly.

Loading next visibility...
FREGAT DEB details
Identifier
45840, 2011-037CA
Orbit
Active
Last TLE update3 weeks ago
Origin
Flag of CISVVKO VKS (CIS)
ManufacturerLavochkin
MissionSpacecraft
Bus & MotorUnknown
MassUnknown
Launch date (UTC)
2011-07-18 (13 years ago)
Launch vehicleUnknown
Launch site
Tyuratam Missile And Space Complex (TTMTR)
Object type
Payload
Rocket body
Debris
Shape & HBRUnknown
Radar Cross SectionSmall (<0.1 m²)

Expand to show TLE details & history

TLE from 3 weeks ago
0 FREGAT DEB
1 45840U 11037CA  24315.51142566  .00053773  00000-0  18964-1 0  9992
2 45840  51.5604 352.3311 2005146 233.8890 105.9500 10.94024120171892
Epoch: 2024-11-10T12:16Z
Definitive object data (Epoch: 2024-11-10T12:16:27.177Z)
Latitude-0.00002°
Longitude118.06786°
Altitude2,953.909 km
Speed6.241 km/s
True Right ascension23h 29m 19s
True Declination0° 00' 00"
Sunlit
Object was in daylight at TLE epoch
Visualization TLE readout
Latitude-49.44455°
Longitude-51.93169°
Altitude570.076 km
Speed8.266 km/s
Apparent Right ascension16h 03m 34s
Apparent Declination-60° 02' 43"
Sunlit
Object is in daylight
Visualization observer readout
Local Sidereal Time07:31:39
Azimuth139.899° SSE
Elevation-52.337°
Doppler factor1
Orbital elements
Apogee altitude3,912.455 km
Perigee altitude474.906 km
Semi-major axis8,571.818 km
Eccentricity0.2005146
Inclination51.5604°
RAAN352.3311°
Arg. of periapsis233.889°
True anomaly126.19141°
Mean anomaly105.95°
Eccentric anomaly116.25353°
Mean motion2.73485 °/min
BSTAR0.018964
Orbital period131.63 mins
Loading maneuver chart data...
Loading historical data...
Loading historical data...
Loading historical data...
Loading historical data...
Loading historical data...
Loading historical data...
Loading historical data...

FREGAT DEB Visibility forecast

Observer location: undefined°, undefined

Span
Click to sort rows by Start time (UTC) header in descending order
Start Az.
Max El. time (UTC)
Max El. Az.
Max El.
End time (UTC)
End Az.
20 mins2024-12-04 21:07:20.464Z140.974° SSE2024-12-04 21:15:20.464Z102.471° ESE19.68°2024-12-04 21:27:20.464Z64.086° ENE
34 mins2024-12-04 23:18:20.464Z208.988° SW2024-12-04 23:30:20.464Z137.237° SSE43.184°2024-12-04 23:52:20.464Z53.526° ENE
40 mins2024-12-05 01:36:20.464Z257.488° W2024-12-05 01:52:20.464Z335.116° NNW42.827°2024-12-05 02:16:20.464Z63.163° ENE
42 mins2024-12-05 03:58:20.464Z290.111° WNW2024-12-05 04:19:20.464Z13.642° NNE41.413°2024-12-05 04:40:20.464Z89.977° E
39 mins2024-12-05 06:21:20.464Z305.071° NW2024-12-05 06:43:20.464Z350.741° N44.983°2024-12-05 07:00:20.464Z130.051° SE
31 mins2024-12-05 08:44:20.464Z302.822° NW2024-12-05 09:02:20.464Z246.622° WSW33.451°2024-12-05 09:15:20.464Z184.058° SSW
|